EN

Hourly Weather Dzhusaly

Today, 29 October, Thursday

Time Temperature Precipitation Wind Pressure Humidity
00:00 -2°C° 0 mm 1 mps 768 mmHg 77%
01:00 -2°C° 0 mm 1 mps 768 mmHg 80%
02:00 -4°C° 0 mm 0 mps 768 mmHg 80%
03:00 -4°C° 0 mm 0 mps 769 mmHg 81%
04:00 -4°C° 0 mm 0 mps 769 mmHg 81%
05:00 -3°C° 0 mm 0 mps 769 mmHg 78%
06:00 -1°C° 0 mm 1 mps 769 mmHg 75%
07:00 -1°C° 0 mm 1 mps 769 mmHg 71%
08:00 +2°C° 0 mm 1 mps 769 mmHg 62%
09:00 +3°C° 0 mm 2 mps 769 mmHg 52%
10:00 +5°C° 0 mm 2 mps 769 mmHg 43%
11:00 +6°C° 0 mm 2 mps 769 mmHg 38%
12:00 +8°C° 0 mm 2 mps 769 mmHg 34%
13:00 +9°C° 0 mm 2 mps 769 mmHg 29%
14:00 +9°C° 0 mm 2 mps 769 mmHg 29%
15:00 +8°C° 0 mm 2 mps 768 mmHg 29%
16:00 +8°C° 0 mm 3 mps 768 mmHg 29%
17:00 +7°C° 0 mm 3 mps 768 mmHg 32%
18:00 +4°C° 0 mm 3 mps 768 mmHg 35%
19:00 +3°C° 0 mm 4 mps 768 mmHg 38%
20:00 +3°C° 0 mm 4 mps 768 mmHg 39%
21:00 +1°C° 0 mm 4 mps 768 mmHg 41%
22:00 +1°C° 0 mm 4 mps 768 mmHg 42%
23:00 +1°C° 0 mm 4 mps 768 mmHg 44%

Tomorrow, 30 October, Friday

Time Temperature Precipitation Wind Pressure Humidity
00:00 0°C° 0 mm 4 mps 767 mmHg 45%
01:00 0°C° 0 mm 4 mps 767 mmHg 47%
02:00 0°C° 0 mm 4 mps 767 mmHg 47%
03:00 0°C° 0 mm 4 mps 767 mmHg 47%
04:00 0°C° 0 mm 4 mps 766 mmHg 47%
05:00 0°C° 0 mm 4 mps 766 mmHg 46%
06:00 0°C° 0 mm 5 mps 766 mmHg 46%
07:00 0°C° 0 mm 5 mps 766 mmHg 45%
08:00 +2°C° 0 mm 6 mps 766 mmHg 40%
09:00 +5°C° 0 mm 6 mps 766 mmHg 34%
10:00 +8°C° 0 mm 7 mps 766 mmHg 28%
11:00 +10°C° 0 mm 7 mps 765 mmHg 26%
12:00 +11°C° 0 mm 7 mps 765 mmHg 25%
13:00 +12°C° 0 mm 7 mps 764 mmHg 23%
14:00 +12°C° 0 mm 7 mps 764 mmHg 24%
15:00 +11°C° 0 mm 6 mps 764 mmHg 25%
16:00 +10°C° 0 mm 6 mps 763 mmHg 26%
17:00 +9°C° 0 mm 6 mps 763 mmHg 28%
18:00 +8°C° 0 mm 6 mps 763 mmHg 30%
19:00 +5°C° 0 mm 6 mps 763 mmHg 31%
20:00 +5°C° 0 mm 6 mps 763 mmHg 32%
21:00 +5°C° 0 mm 6 mps 763 mmHg 32%
22:00 +6°C° 0 mm 5 mps 763 mmHg 33%
23:00 +5°C° 0 mm 5 mps 762 mmHg 33%

Day after tomorrow, 31 October, Saturday

Time Temperature Precipitation Wind Pressure Humidity
00:00 +5°C° 0 mm 5 mps 762 mmHg 33%
01:00 +3°C° 0 mm 5 mps 762 mmHg 33%
02:00 +3°C° 0 mm 5 mps 762 mmHg 34%
03:00 +3°C° 0 mm 6 mps 762 mmHg 34%
04:00 +3°C° 0 mm 6 mps 761 mmHg 35%
05:00 +2°C° 0 mm 6 mps 761 mmHg 36%
06:00 +2°C° 0 mm 6 mps 761 mmHg 37%
07:00 +2°C° 0 mm 6 mps 761 mmHg 38%
08:00 +5°C° 0 mm 6 mps 761 mmHg 34%
09:00 +8°C° 0 mm 7 mps 761 mmHg 31%
10:00 +11°C° 0 mm 8 mps 761 mmHg 27%
11:00 +12°C° 0 mm 8 mps 761 mmHg 25%
12:00 +15°C° 0 mm 8 mps 760 mmHg 23%
13:00 +16°C° 0 mm 8 mps 760 mmHg 22%
14:00 +15°C° 0 mm 7 mps 760 mmHg 22%
15:00 +15°C° 0 mm 6 mps 759 mmHg 23%
16:00 +14°C° 0 mm 6 mps 759 mmHg 23%
17:00 +13°C° 0 mm 5 mps 759 mmHg 26%
18:00 +10°C° 0 mm 5 mps 759 mmHg 29%
19:00 +8°C° 0 mm 5 mps 759 mmHg 32%
20:00 +8°C° 0 mm 5 mps 759 mmHg 33%
21:00 +7°C° 0 mm 5 mps 759 mmHg 33%
22:00 +7°C° 0 mm 5 mps 759 mmHg 34%
23:00 +6°C° 0 mm 5 mps 759 mmHg 34%

1 November, Sunday

Time Temperature Precipitation Wind Pressure Humidity
00:00 +6°C° 0 mm 5 mps 758 mmHg 35%
01:00 +6°C° 0 mm 5 mps 758 mmHg 35%
02:00 +5°C° 0 mm 5 mps 758 mmHg 37%
03:00 +5°C° 0 mm 5 mps 758 mmHg 40%
04:00 +3°C° 0 mm 5 mps 758 mmHg 42%
05:00 +3°C° 0 mm 5 mps 758 mmHg 44%
06:00 +3°C° 0 mm 5 mps 758 mmHg 46%
07:00 +2°C° 0 mm 5 mps 758 mmHg 47%
08:00 +6°C° 0 mm 5 mps 758 mmHg 42%
09:00 +8°C° 0 mm 5 mps 758 mmHg 37%
10:00 +10°C° 0 mm 5 mps 758 mmHg 32%
11:00 +13°C° 0 mm 5 mps 757 mmHg 28%
12:00 +15°C° 0 mm 4 mps 757 mmHg 25%
13:00 +17°C° 0 mm 4 mps 757 mmHg 21%
14:00 +15°C° 0 mm 4 mps 757 mmHg 23%
15:00 +14°C° 0 mm 3 mps 756 mmHg 25%
16:00 +13°C° 0 mm 3 mps 756 mmHg 26%
17:00 +12°C° 0 mm 3 mps 756 mmHg 30%
18:00 +10°C° 0 mm 3 mps 756 mmHg 33%
19:00 +9°C° 0 mm 3 mps 757 mmHg 37%
20:00 +8°C° 0 mm 3 mps 756 mmHg 39%
21:00 +7°C° 0 mm 3 mps 756 mmHg 41%
22:00 +6°C° 0 mm 2 mps 756 mmHg 43%
23:00 +6°C° 0 mm 2 mps 756 mmHg 48%

2 November, Monday

Time Temperature Precipitation Wind Pressure Humidity
00:00 +5°C° 0 mm 2 mps 757 mmHg 52%
01:00 +4°C° 0 mm 2 mps 757 mmHg 56%
02:00 +4°C° 0 mm 2 mps 757 mmHg 57%
03:00 +4°C° 0 mm 2 mps 757 mmHg 58%
04:00 +4°C° 0 mm 2 mps 757 mmHg 59%
05:00 +4°C° 0 mm 2 mps 757 mmHg 55%
06:00 +4°C° 0 mm 2 mps 757 mmHg 51%
07:00 +4°C° 0 mm 2 mps 758 mmHg 48%
08:00 +7°C° 0 mm 2 mps 758 mmHg 40%
09:00 +10°C° 0 mm 2 mps 758 mmHg 33%
10:00 +14°C° 0 mm 2 mps 759 mmHg 26%
11:00 +15°C° 0 mm 2 mps 759 mmHg 23%
12:00 +16°C° 0 mm 2 mps 759 mmHg 21%
13:00 +18°C° 0 mm 2 mps 759 mmHg 19%
14:00 +16°C° 0 mm 2 mps 758 mmHg 20%
15:00 +15°C° 0 mm 2 mps 758 mmHg 21%
16:00 +14°C° 0 mm 2 mps 758 mmHg 22%
17:00 +12°C° 0 mm 3 mps 759 mmHg 25%
18:00 +11°C° 0 mm 3 mps 759 mmHg 28%
19:00 +9°C° 0 mm 3 mps 760 mmHg 30%
20:00 +9°C° 0 mm 3 mps 760 mmHg 31%
21:00 +7°C° 0 mm 4 mps 760 mmHg 31%
22:00 +7°C° 0 mm 4 mps 760 mmHg 31%
23:00 +6°C° 0 mm 4 mps 760 mmHg 32%

3 November, Tuesday

Time Temperature Precipitation Wind Pressure Humidity
00:00 +5°C° 0 mm 4 mps 760 mmHg 33%
01:00 +4°C° 0 mm 4 mps 761 mmHg 34%
02:00 +4°C° 0 mm 4 mps 761 mmHg 44%
03:00 +3°C° 0 mm 4 mps 761 mmHg 55%
04:00 +2°C° 0 mm 5 mps 761 mmHg 65%
05:00 +2°C° 0 mm 5 mps 762 mmHg 72%
06:00 +1°C° 0 mm 5 mps 762 mmHg 79%
07:00 +1°C° 0 mm 5 mps 762 mmHg 86%
08:00 +3°C° 0 mm 5 mps 763 mmHg 72%
09:00 +5°C° 0 mm 6 mps 763 mmHg 58%
10:00 +8°C° 0 mm 6 mps 763 mmHg 43%
11:00 +9°C° 0 mm 6 mps 763 mmHg 42%
12:00 +10°C° 0 mm 6 mps 763 mmHg 40%
13:00 +11°C° 0 mm 6 mps 763 mmHg 38%
14:00 +11°C° 0 mm 6 mps 763 mmHg 38%
15:00 +10°C° 0 mm 6 mps 763 mmHg 37%
16:00 +9°C° 0 mm 5 mps 763 mmHg 37%
17:00 +8°C° 0 mm 6 mps 763 mmHg 39%
18:00 +5°C° 0 mm 6 mps 764 mmHg 40%
19:00 +4°C° 0 mm 6 mps 764 mmHg 42%
20:00 +3°C° 0 mm 5 mps 764 mmHg 44%
21:00 +2°C° 0 mm 5 mps 764 mmHg 46%
22:00 +1°C° 0 mm 5 mps 764 mmHg 49%
23:00 +1°C° 0 mm 5 mps 764 mmHg 51%
Show more